Regional Weather Roundup
Issued by NWS State College, PA

Home | Current Version | Previous Version | Graphics & Text | Print | Product List | Glossary Off
Versions: 1 2 3 4 5 6 7 8 9 10 11 12 13 14 15 16 17 18 19 20 21 22 23 24 25 26 27 28 29 30 31 32 33 34 35 36 37 38 39 40 41 42 43 44 45 46 47 48 49 50

000
ASUS41 KCTP 270010
RWRCTP

REGIONAL WEATHER ROUNDUP
NATIONAL WEATHER SERVICE STATE COLLEGE PA
700 PM EST MON JAN 26 2015

Note: "fair" indicates few or no clouds below 12,000 feet with no
significant weather and/or obstructions to visibility.

* = STATION THAT DOES NOT REPORT PRECIPITATION /E.G. RAIN...SNOW...ETC/
    THUNDER OR FOG.

PAZ002>004-007>009-013>016-020>023-029>032-270100-
WESTERN PENNSYLVANIA

CITY           SKY/WX    TMP DP  RH WIND       PRES   REMARKS
ERIE           CLOUDY    22  17  81 NE10      29.88R WCI  11
MEADVILLE      CLOUDY    19  15  84 N6        29.80R WCI  11
FRANKLIN*      CLOUDY    21  18  86 NW5       29.79R WCI  15
NEW CASTLE     CLOUDY    20  16  84 NW10      29.84R WCI   9
BEAVER COUNTY  CLOUDY    23  19  86 NW6       29.81R
BUTLER*        CLOUDY    23  19  86 W5        29.80R
PITTSBURGH INT LGT SNOW  23  21  92 NW12      29.80R WCI  12
PITTSBURGH     LGT SNOW  24  20  84 NW7       29.78R FOG
INDIANA*       CLOUDY    23  21  93 NE5       29.80R FOG
LATROBE        LGT SNOW  27  27 100 NW7       29.78R VSB 1
WASHINGTON CO* CLOUDY    25  19  80 CALM      29.82R
$$

PAZ004>006-010>012-017>019-024>028-033>037-041-042-045-046-049>053-270100-
CENTRAL PENNSYLVANIA

CITY           SKY/WX    TMP DP  RH WIND       PRES   REMARKS
BRADFORD       LGT SNOW  16  10  77 E7        29.75R WCI   6
DUBOIS         CLOUDY    20  15  81 NE8       29.74R WCI  10
CLEARFIELD     LGT SNOW  20  18  92 NE3       29.78R FOG
JOHNSTOWN      LGT SNOW  19  16  88 E8        29.69R FOG     WCI   9
ALTOONA        LGT SNOW  21  19  92 N7        29.76R FOG     WCI  12
STATE COLLEGE  LGT SNOW  21  19  93 NE7       29.79R FOG     WCI  13
WILLIAMSPORT   LGT SNOW  24  21  88 CALM      29.84R VSB 1
SELINSGROVE    LGT SNOW  25  22  88 N6        29.83S FOG
FT INDIANTOWN  CLOUDY    25  19  80 NE10      29.79F WCI  15
CAPITAL CITY   LGT SNOW  25  19  78 NE7       29.80S
HARRISBURG     LGT SNOW  24  19  81 NE10      29.80S WCI  14
YORK           LGT SNOW  24  20  84 NE8       29.77S FOG
$$

PAZ038>040-043-044-047-048-054-055-060>062-067>071-270100-
EASTERN PENNSYLVANIA

CITY           SKY/WX    TMP DP  RH WIND       PRES   REMARKS
SCRANTON       CLOUDY    22  15  75 NE9       29.82R WCI  12
MOUNT POCONO   MIX PCPN  19  14  81 E21G26    29.75S WCI   3
ALLENTOWN      LGT SNOW  22  16  78 NE16      29.83S WCI   8
QUAKERTOWN*    NOT AVBL
READING        FLURRIES  22  16  78 NE13      29.80S WCI  10
LANCASTER      LGT SNOW  22  17  81 NE14      29.77F WCI   9
COATESVILLE    FLURRIES  25  23  93 NE14G20   29.74S WCI  13
POTTSTOWN      CLOUDY    23  18  81 N9        29.80S WCI  13
BLUE BELL      MOCLDY    27  23  86 NE8G20    29.76F
DOYLESTOWN     LGT SNOW  23  21  92 NE15G22   29.77F FOG     WCI  10
WILLOW GROVE   NOT AVBL
NORTH PHILA    CLOUDY    27  19  72 NE21G26   29.78F WCI  13
PHILADELPHIA   FLURRIES  28  21  75 NE23G30   29.76F WCI  14
$$


USA.gov is the U.S. government's official web portal to all federal, state and local government web resources and services.